Hourly Weather Barsukovo

Today, 19 April, Monday

Time Temperature Precipitation Wind Pressure Humidity
00:00 +5°C° 0 mm 3 mps 755 mmHg 80%
01:00 +5°C° 0 mm 3 mps 755 mmHg 83%
02:00 +5°C° 0 mm 4 mps 755 mmHg 85%
03:00 +4°C° 0 mm 4 mps 755 mmHg 87%
04:00 +4°C° 0 mm 4 mps 755 mmHg 87%
05:00 +4°C° 0 mm 4 mps 755 mmHg 87%
06:00 +4°C° 0 mm 4 mps 755 mmHg 87%
07:00 +3°C° 0 mm 5 mps 755 mmHg 80%
08:00 +5°C° 0 mm 5 mps 755 mmHg 74%
09:00 +6°C° 0 mm 5 mps 756 mmHg 68%
10:00 +7°C° 0 mm 5 mps 756 mmHg 62%
11:00 +8°C° 0 mm 6 mps 755 mmHg 57%
12:00 +9°C° 0 mm 6 mps 755 mmHg 52%
13:00 +9°C° 0 mm 6 mps 755 mmHg 53%
14:00 +9°C° 0 mm 6 mps 755 mmHg 54%
15:00 +9°C° 0 mm 6 mps 755 mmHg 54%
16:00 +9°C° 0 mm 6 mps 755 mmHg 53%
17:00 +8°C° 0 mm 6 mps 756 mmHg 52%
18:00 +7°C° 0 mm 6 mps 756 mmHg 51%
19:00 +7°C° 0 mm 5 mps 756 mmHg 52%
20:00 +6°C° 0 mm 5 mps 756 mmHg 53%
21:00 +5°C° 0 mm 5 mps 756 mmHg 54%
22:00 +5°C° 0 mm 5 mps 756 mmHg 58%
23:00 +3°C° 0 mm 5 mps 756 mmHg 61%

Tomorrow, 20 April, Tuesday

Time Temperature Precipitation Wind Pressure Humidity
00:00 +3°C° 0 mm 5 mps 756 mmHg 64%
01:00 +3°C° 0 mm 5 mps 756 mmHg 67%
02:00 +2°C° 0 mm 5 mps 756 mmHg 70%
03:00 +2°C° 0 mm 5 mps 756 mmHg 73%
04:00 +2°C° 0 mm 5 mps 756 mmHg 73%
05:00 +2°C° 0 mm 5 mps 756 mmHg 72%
06:00 +2°C° 0 mm 5 mps 755 mmHg 72%
07:00 +1°C° 0.1 mm 5 mps 755 mmHg 78%
08:00 +1°C° 0.1 mm 5 mps 755 mmHg 84%
09:00 +1°C° 0.1 mm 5 mps 755 mmHg 90%
10:00 +1°C° 0.4 mm 5 mps 755 mmHg 91%
11:00 +1°C° 0.4 mm 5 mps 755 mmHg 92%
12:00 +1°C° 0.4 mm 5 mps 755 mmHg 92%
13:00 +1°C° 0.6 mm 5 mps 754 mmHg 92%
14:00 +1°C° 0.6 mm 5 mps 754 mmHg 92%
15:00 +1°C° 0.6 mm 6 mps 753 mmHg 92%
16:00 +2°C° 0.4 mm 6 mps 753 mmHg 89%
17:00 +2°C° 0.4 mm 6 mps 752 mmHg 87%
18:00 +3°C° 0.4 mm 7 mps 751 mmHg 84%
19:00 +3°C° 0.5 mm 7 mps 750 mmHg 85%
20:00 +2°C° 0.5 mm 8 mps 749 mmHg 86%
21:00 +2°C° 0.5 mm 8 mps 748 mmHg 87%
22:00 +2°C° 2.4 mm 8 mps 747 mmHg 89%
23:00 +1°C° 2.4 mm 8 mps 746 mmHg 91%

Day after tomorrow, 21 April, Wednesday

Time Temperature Precipitation Wind Pressure Humidity
00:00 +1°C° 2.4 mm 8 mps 745 mmHg 93%
01:00 +2°C° 0.8 mm 8 mps 744 mmHg 92%
02:00 +2°C° 0.8 mm 8 mps 743 mmHg 91%
03:00 +4°C° 0.8 mm 8 mps 742 mmHg 90%
04:00 +4°C° 0.8 mm 8 mps 742 mmHg 90%
05:00 +4°C° 0.8 mm 8 mps 741 mmHg 91%
06:00 +5°C° 0.8 mm 8 mps 740 mmHg 91%
07:00 +5°C° 0.3 mm 8 mps 740 mmHg 92%
08:00 +5°C° 0.3 mm 8 mps 740 mmHg 92%
09:00 +6°C° 0.3 mm 7 mps 740 mmHg 92%
10:00 +5°C° 0.2 mm 7 mps 741 mmHg 91%
11:00 +4°C° 0.2 mm 7 mps 741 mmHg 91%
12:00 +3°C° 0.2 mm 7 mps 742 mmHg 91%
13:00 +3°C° 0 mm 7 mps 743 mmHg 90%
14:00 +3°C° 0 mm 7 mps 744 mmHg 88%
15:00 +3°C° 0 mm 6 mps 745 mmHg 87%
16:00 +3°C° 0 mm 6 mps 746 mmHg 86%
17:00 +3°C° 0 mm 5 mps 747 mmHg 85%
18:00 +3°C° 0 mm 5 mps 748 mmHg 83%
19:00 +4°C° 0 mm 4 mps 748 mmHg 84%
20:00 +4°C° 0 mm 4 mps 749 mmHg 84%
21:00 +4°C° 0 mm 3 mps 749 mmHg 85%
22:00 +4°C° 0 mm 3 mps 750 mmHg 85%
23:00 +4°C° 0 mm 3 mps 750 mmHg 85%

22 April, Thursday

Time Temperature Precipitation Wind Pressure Humidity
00:00 +4°C° 0 mm 3 mps 750 mmHg 86%
01:00 +4°C° 0.1 mm 3 mps 750 mmHg 88%
02:00 +4°C° 0.1 mm 3 mps 750 mmHg 91%
03:00 +4°C° 0.1 mm 3 mps 750 mmHg 94%
04:00 +3°C° 0 mm 3 mps 751 mmHg 94%
05:00 +3°C° 0 mm 3 mps 751 mmHg 95%
06:00 +3°C° 0 mm 2 mps 751 mmHg 95%
07:00 +4°C° 0 mm 3 mps 751 mmHg 88%
08:00 +5°C° 0 mm 3 mps 752 mmHg 82%
09:00 +8°C° 0 mm 3 mps 752 mmHg 76%
10:00 +8°C° 0 mm 4 mps 752 mmHg 72%
11:00 +10°C° 0 mm 4 mps 753 mmHg 68%
12:00 +10°C° 0 mm 5 mps 753 mmHg 65%
13:00 +12°C° 0.1 mm 5 mps 753 mmHg 63%
14:00 +12°C° 0.1 mm 5 mps 753 mmHg 62%
15:00 +13°C° 0.1 mm 5 mps 753 mmHg 61%
16:00 +13°C° 0.1 mm 4 mps 753 mmHg 64%
17:00 +12°C° 0.1 mm 3 mps 753 mmHg 67%
18:00 +12°C° 0.1 mm 3 mps 753 mmHg 70%
19:00 +11°C° 0 mm 3 mps 754 mmHg 74%
20:00 +10°C° 0 mm 2 mps 754 mmHg 79%
21:00 +8°C° 0 mm 2 mps 754 mmHg 83%
22:00 +8°C° 0 mm 2 mps 754 mmHg 82%
23:00 +8°C° 0 mm 2 mps 754 mmHg 80%

23 April, Friday

Time Temperature Precipitation Wind Pressure Humidity
00:00 +9°C° 0 mm 2 mps 754 mmHg 79%
01:00 +8°C° 0 mm 2 mps 754 mmHg 79%
02:00 +8°C° 0 mm 2 mps 754 mmHg 80%
03:00 +8°C° 0 mm 2 mps 754 mmHg 80%
04:00 +8°C° 0 mm 2 mps 754 mmHg 80%
05:00 +8°C° 0 mm 2 mps 754 mmHg 80%
06:00 +8°C° 0 mm 2 mps 754 mmHg 80%
07:00 +9°C° 0 mm 2 mps 754 mmHg 77%
08:00 +11°C° 0 mm 3 mps 754 mmHg 74%
09:00 +12°C° 0 mm 3 mps 754 mmHg 71%
10:00 +13°C° 0.3 mm 4 mps 754 mmHg 65%
11:00 +14°C° 0.3 mm 4 mps 753 mmHg 59%
12:00 +15°C° 0.3 mm 5 mps 753 mmHg 54%
13:00 +15°C° 0.4 mm 5 mps 753 mmHg 54%
14:00 +15°C° 0.4 mm 4 mps 752 mmHg 54%
15:00 +15°C° 0.4 mm 4 mps 752 mmHg 55%
16:00 +15°C° 0.2 mm 4 mps 752 mmHg 57%
17:00 +14°C° 0.2 mm 4 mps 752 mmHg 60%
18:00 +13°C° 0.2 mm 3 mps 751 mmHg 63%
19:00 +13°C° 0 mm 3 mps 751 mmHg 66%
20:00 +12°C° 0 mm 3 mps 751 mmHg 69%
21:00 +11°C° 0 mm 3 mps 751 mmHg 71%
22:00 +11°C° 0 mm 3 mps 750 mmHg 71%
23:00 +10°C° 0 mm 3 mps 750 mmHg 71%

24 April, Saturday

Time Temperature Precipitation Wind Pressure Humidity
00:00 +10°C° 0 mm 3 mps 749 mmHg 71%
01:00 +9°C° 0 mm 3 mps 749 mmHg 76%
02:00 +9°C° 0 mm 3 mps 749 mmHg 80%
03:00 +8°C° 0 mm 3 mps 748 mmHg 84%
04:00 +8°C° 0.1 mm 3 mps 748 mmHg 85%
05:00 +8°C° 0.1 mm 3 mps 747 mmHg 86%
06:00 +8°C° 0.1 mm 3 mps 747 mmHg 87%
07:00 +8°C° 0.2 mm 4 mps 747 mmHg 85%
08:00 +10°C° 0.2 mm 4 mps 747 mmHg 83%
09:00 +10°C° 0.2 mm 5 mps 747 mmHg 81%
10:00 +8°C° 0.5 mm 4 mps 747 mmHg 82%
11:00 +7°C° 0.5 mm 4 mps 747 mmHg 84%
12:00 +5°C° 0.5 mm 3 mps 748 mmHg 85%
13:00 +7°C° 0 mm 4 mps 748 mmHg 75%
14:00 +8°C° 0 mm 4 mps 748 mmHg 64%
15:00 +11°C° 0 mm 4 mps 747 mmHg 54%
16:00 +10°C° 0 mm 5 mps 748 mmHg 54%
17:00 +9°C° 0 mm 5 mps 748 mmHg 55%
18:00 +9°C° 0 mm 5 mps 748 mmHg 56%
19:00 +7°C° 0 mm 4 mps 748 mmHg 59%
20:00 +7°C° 0 mm 3 mps 749 mmHg 62%
21:00 +5°C° 0 mm 2 mps 749 mmHg 65%
22:00 +4°C° 0 mm 2 mps 750 mmHg 69%
23:00 +4°C° 0 mm 2 mps 750 mmHg 72%
Show more